CDT,Max TemperatureF,Mean TemperatureF,Min TemperatureF,Max Dew PointF,MeanDew PointF,Min DewpointF,Max Humidity, Mean Humidity, Min Humidity, Max Sea Level PressureIn, Mean Sea Level PressureIn, Min Sea Level PressureIn, Max VisibilityMiles, Mean VisibilityMiles, Min VisibilityMiles, Max Wind SpeedMPH, Mean Wind SpeedMPH, Max Gust SpeedMPH,PrecipitationIn, CloudCover, Events, WindDirDegrees
2013-5-1,89,70,51,46,18,1,72,16,6,30.21,30.00,29.63,10,8,8,12,4,,0.00,3,,307
2013-5-2,93,72,51,48,23,9,49,20,5,30.21,29.98,29.58,10,8,6,21,4,,0.00,1,,51
2013-5-3,89,73,57,50,41,30,67,37,13,30.27,30.02,29.63,9,8,7,16,10,,0.00,1,,80
2013-5-4,87,69,51,41,26,5,62,28,4,30.24,30.01,29.65,10,8,7,23,6,,0.00,1,,248
2013-5-5,87,69,51,30,21,10,41,19,6,30.24,30.03,29.68,10,9,8,12,3,,0.00,2,,289
2013-5-6,89,70,51,43,29,14,62,28,7,30.30,30.06,29.68,10,8,6,15,4,,0.00,1,,226
2013-5-7,91,73,55,37,29,21,36,20,9,30.27,30.07,29.65,10,8,6,18,5,24,0.00,2,,266
2013-5-8,91,72,53,39,26,18,54,20,8,30.29,30.09,29.72,10,9,6,13,4,,0.00,2,,233
2013-5-9,93,74,55,46,29,19,38,21,8,30.32,30.08,29.60,10,9,8,12,4,,0.00,4,,244
2013-5-10,93,68,42,36,30,21,53,21,9,30.29,30.07,29.65,10,8,6,18,3,20,0.00,4,,247
2013-5-11,91,74,57,36,31,25,41,23,11,30.24,30.03,29.68,10,8,7,17,3,,0.00,6,,261
2013-5-12,86,73,60,52,48,39,72,45,19,30.30,30.01,29.62,9,8,6,17,8,,0.00,7,,73
2013-5-13,82,71,60,52,49,43,68,50,25,30.33,30.11,29.70,8,7,6,17,9,,0.00,7,,64
2013-5-14,84,73,62,54,50,46,72,53,27,30.35,30.16,29.76,9,8,7,15,8,,0.00,7,Rain,67
2013-5-15,89,73,57,59,50,37,88,52,19,30.36,30.13,29.72,9,8,3,20,3,,0.00,6,Rain,295
2013-5-16,91,75,59,55,49,39,88,48,16,30.27,30.08,29.70,9,8,6,10,4,,0.00,7,,243
2013-5-17,95,78,60,52,43,36,64,35,12,30.27,30.02,29.67,10,8,8,17,5,,0.00,5,,39
2013-5-18,95,78,60,50,45,37,68,37,14,30.29,30.04,29.59,10,9,8,18,4,,0.00,4,,67
2013-5-19,96,78,60,52,45,34,68,36,12,30.24,30.01,29.57,10,9,8,17,4,,0.00,3,,194
2013-5-20,96,79,62,50,40,28,59,29,10,30.22,30.00,29.57,10,8,5,14,6,,0.00,2,,257
2013-5-21,96,78,59,32,28,21,36,19,8,30.18,29.96,29.53,10,8,6,20,6,,0.00,2,,275
2013-5-22,96,76,57,54,31,23,50,22,8,30.18,29.95,29.53,10,8,6,13,5,,0.00,3,,204
2013-5-23,93,78,62,54,46,32,72,38,14,30.24,29.99,29.58,10,7,4,20,5,,0.00,4,,66
2013-5-24,91,76,60,48,44,37,59,37,17,30.30,30.08,29.71,10,8,3,23,7,34,0.00,5,,71
2013-5-25,91,76,60,55,47,37,82,42,17,30.32,30.12,29.68,10,8,6,16,8,,0.00,5,,158
2013-5-26,84,72,60,59,56,52,88,67,35,30.33,30.13,29.80,10,8,5,15,6,,0.00,6,,104
2013-5-27,87,71,55,55,52,46,88,53,24,30.27,30.04,29.65,10,9,6,13,6,,0.00,3,,145
2013-5-28,91,76,60,55,51,45,77,47,23,30.18,29.94,29.53,10,9,8,10,2,,0.00,4,Rain,254
2013-5-29,93,78,64,61,52,39,73,47,16,30.12,29.91,29.52,9,7,5,18,4,,0.00,5,,189
2013-5-30,96,78,60,55,45,34,72,39,11,30.18,29.94,29.52,10,8,5,24,2,,0.00,5,Thunderstorm,232
2013-5-31,98,80,62,54,43,30,72,34,10,30.18,29.96,29.51,10,9,7,16,7,,0.00,2,,86